Weather History for Park Rapids, MN

Change the Weather History Date:

Wednesday, July 23, 2014

  Actual Average Record
Temperature  
Mean Temperature 65 °F -  
Max Temperature 78 °F 80 °F 95 °F (2007)
Min Temperature 53 °F 55 °F 41 °F (2004)
Growing Degree Days 15 (Base 50)    
Moisture  
Dew Point 53 °F    
Average Humidity 69    
Maximum Humidity 96    
Minimum Humidity 39    
Precipitation  
Precipitation 0.00 in - - ()
Sea Level Pressure  
Sea Level Pressure 30.25 in    
Wind  
Wind Speed 4 mph (NNW)    
Max Wind Speed 12 mph    
Max Gust Speed 17 mph    
Visibility 10 miles    
Events      
Averages and records for this station are not official NWS values.
T = Trace of Precipitation, MM = Missing Value Source: NWS Daily Summary

Daily Weather History Graph

Daily Weather History Graph

Search for Another Location

Airport:

Trip Planner

Search our weather history database for the weather conditions in past years. The results will help you decide how hot, cold, wet, or windy it might be!

Date:

Astronomy

Jul. 23, 2014 Rise Set
Actual Time 5:49 AM CDT 9:03 PM CDT
Civil Twilight 5:12 AM CDT 9:40 PM CDT
Nautical Twilight 4:24 AM CDT 10:27 PM CDT
Astronomical Twilight 3:24 AM CDT 11:27 PM CDT
Moon 3:10 AM CDT (7/23) 6:31 PM CDT (7/23)
Length of Visible Light 16h 27m
Length of Day
15h 14m
Waning Crescent, 9% of the Moon is Illuminated
Jul 23
Waning Crescent
Jul 26
New
Aug 3
First Quarter
Aug 10
Full
Aug 17
Last Quarter

Hourly Weather History & Observations

Time (CDT) Temp. Dew Point Humidity Pressure Visibility Wind Dir Wind Speed Gust Speed Precip Events Conditions
12:53 AM 55.9 °F 53.1 °F 90% 30.25 in 10.0 mi WNW 3.5 mph - N/A   Clear
1:53 AM 55.0 °F 52.0 °F 89% 30.25 in 10.0 mi NW 4.6 mph - N/A   Clear
2:53 AM 54.0 °F 52.0 °F 93% 30.25 in 10.0 mi Calm Calm - N/A   Clear
3:53 AM 54.0 °F 52.0 °F 93% 30.25 in 10.0 mi Calm Calm - N/A   Clear
4:53 AM 53.1 °F 51.1 °F 93% 30.27 in 10.0 mi WNW 3.5 mph - N/A   Clear
5:53 AM 53.1 °F 51.1 °F 93% 30.29 in 10.0 mi Calm Calm - N/A   Clear
6:53 AM 55.0 °F 54.0 °F 96% 30.30 in 10.0 mi Calm Calm - N/A   Clear
7:53 AM 57.0 °F 55.9 °F 96% 30.30 in 10.0 mi Calm Calm - N/A   Clear
8:53 AM 64.9 °F 55.0 °F 70% 30.30 in 10.0 mi North 5.8 mph - N/A   Clear
9:53 AM 69.1 °F 52.0 °F 54% 30.29 in 10.0 mi North 9.2 mph - N/A   Clear
10:53 AM 70.0 °F 54.0 °F 57% 30.29 in 10.0 mi North 9.2 mph - N/A   Clear
11:53 AM 73.0 °F 53.1 °F 49% 30.28 in 10.0 mi NNW 11.5 mph 17.3 mph N/A   Clear
12:53 PM 73.0 °F 53.1 °F 49% 30.27 in 10.0 mi North 4.6 mph - N/A   Clear
1:53 PM 75.0 °F 52.0 °F 44% 30.27 in 10.0 mi NNW 9.2 mph - N/A   Scattered Clouds
2:53 PM 75.9 °F 51.1 °F 42% 30.26 in 10.0 mi NNW 10.4 mph - N/A   Scattered Clouds
3:53 PM 77.0 °F 50.0 °F 39% 30.25 in 10.0 mi NNW 9.2 mph - N/A   Scattered Clouds
4:53 PM 75.9 °F 51.1 °F 42% 30.24 in 10.0 mi NW 10.4 mph - N/A   Scattered Clouds
5:53 PM 75.0 °F 51.1 °F 43% 30.23 in 10.0 mi Variable 4.6 mph - N/A   Mostly Cloudy
6:53 PM 73.9 °F 52.0 °F 46% 30.22 in 10.0 mi North 8.1 mph - N/A   Partly Cloudy
7:53 PM 73.0 °F 53.1 °F 49% 30.20 in 10.0 mi NNW 5.8 mph - N/A   Clear
8:53 PM 66.9 °F 57.0 °F 70% 30.19 in 10.0 mi WNW 5.8 mph - N/A   Clear
9:53 PM 64.0 °F 57.0 °F 78% 30.19 in 10.0 mi Calm Calm - N/A   Clear
10:53 PM 59.0 °F 55.9 °F 90% 30.19 in 10.0 mi Calm Calm - N/A   Clear
11:53 PM 61.0 °F 55.9 °F 83% 30.19 in 10.0 mi Calm Calm - N/A   Clear